FW8431 Weather Reports


Display with metric or nautical units.
time (UTC)temp
F
wind
direction
speed
MPH
gust
MPH
rain 1hr
in
rain 24hr
in
rain mn
in
humidity
%
barometer
mb
20260905094557 65 0 0.0 0.0 0.00 0.00 0.00 97 1019.5
20260905093106 65 0 0.0 0.0 0.00 0.00 0.00 97 1019.5
20260905091559 66 0 0.0 0.0 0.00 0.00 0.00 97 1019.6
20260905090055 66 0 0.0 0.0 0.00 0.00 0.00 97 1019.8
20260905084603 66 0 0.0 0.0 0.00 0.00 0.00 97 1020.1
20260905083102 66 0 0.0 0.0 0.00 0.00 0.00 97 1020.1
20260905081557 66 0 0.0 0.0 0.00 0.00 0.00 97 1020.2
20260905080110 66 0 0.0 0.0 0.00 0.00 0.00 97 1020.3
20260905074553 66 0 0.0 0.0 0.00 0.00 0.00 97 1020.2
20260905073102 67 0 0.0 0.0 0.00 0.00 0.00 96 1020.4
20260905071559 67 0 0.0 0.0 0.00 0.00 0.00 97 1020.6
20260905070057 67 0 0.0 0.0 0.00 0.00 0.00 96 1020.6
20260905064605 67 0 0.0 0.0 0.00 0.00 0.00 96 1020.6
20260905063100 67 0 0.0 0.0 0.00 0.00 0.00 96 1020.7
20260905061610 68 0 0.0 0.0 0.00 0.00 0.00 96 1020.6
20260905060058 67 0 0.0 0.0 0.00 0.00 0.00 95 1021.1
20260905054554 68 0 0.0 0.0 0.00 0.00 0.00 95 1021.0
20260905053110 68 0 0.0 0.0 0.00 0.00 0.00 95 1021.1
20260905051558 68 0 0.0 2.0 0.00 0.00 0.00 94 1021.2
20260905050059 68 0 0.0 1.0 0.00 0.00 0.00 94 1021.0
20260905044555 68 198 0.0 1.0 0.00 0.00 0.00 93 1020.9
20260905043101 68 0 0.0 2.0 0.00 0.00 0.00 94 1021.0
20260905041601 69 0 0.0 2.0 0.00 0.00 0.00 93 1020.8
20260905040107 69 0 0.0 2.0 0.00 0.00 0.00 93 1020.9
20260905034618 69 0 0.0 2.0 0.00 0.00 0.00 92 1021.0
20260905033117 70 0 0.0 2.0 0.00 0.00 0.00 92 1021.2
20260905031611 70 0 0.0 2.0 0.00 0.00 0.00 92 1021.2
20260905030104 70 0 0.0 0.0 0.00 0.00 0.00 91 1021.0
20260905024604 70 0 0.0 3.0 0.00 0.00 0.00 91 1021.3
20260905023127 71 0 0.0 3.0 0.00 0.00 0.00 90 1021.6
20260905021604 71 198 0.0 2.0 0.00 0.00 0.00 90 1021.6
20260905014604 72 0 0.0 0.0 0.00 0.00 0.00 88 1021.8
20260905013058 72 0 0.0 1.0 0.00 0.00 0.00 87 1022.0
20260905011601 72 198 1.0 2.0 0.00 0.00 0.00 87 1021.7
20260905010107 72 0 0.0 2.0 0.00 0.00 0.00 85 1021.6
20260905004609 73 198 1.0 2.0 0.00 0.00 0.00 84 1021.5
20260905003120 74 198 0.0 2.0 0.00 0.00 0.00 83 1021.3
20260905001602 75 0 0.0 2.0 0.00 0.00 0.00 83 1021.1
20260905000118 76 0 0.0 0.0 0.00 0.00 0.00 82 1021.1
20260904234607 77 0 0.0 2.0 0.00 0.00 0.00 82 1020.9
20260904233100 78 0 0.0 0.0 0.00 0.00 0.00 79 1021.0
20260904231559 79 0 0.0 0.0 0.00 0.00 0.00 76 1020.6
20260904230112 81 0 1.0 2.0 0.00 0.00 0.00 75 1020.6
20260904224556 83 198 1.0 3.0 0.00 0.00 0.00 70 1020.5
20260904223103 85 0 0.0 3.0 0.00 0.00 0.00 65 1020.6
20260904221557 86 198 0.0 3.0 0.00 0.00 0.00 63 1020.5
20260904220058 86 0 0.0 3.0 0.00 0.00 0.00 63 1020.5
20260904214552 87 231 2.0 5.0 0.00 0.00 0.00 65 1020.6
20260904213059 88 136 1.0 8.0 0.00 0.00 0.00 61 1020.6
20260904211558 90 0 0.0 0.0 0.00 0.00 0.00 52 1020.8
20260904210055 90 0 0.0 3.0 0.00 0.00 0.00 55 1020.6
20260904204558 89 32 1.0 3.0 0.00 0.00 0.00 53 1020.6
20260904203102 89 0 0.0 4.0 0.00 0.00 0.00 57 1020.7
20260904201624 89 0 0.0 2.0 0.00 0.00 0.00 62 1021.0
20260904200100 87 275 0.0 2.0 0.00 0.00 0.00 62 1021.1
20260904194605 87 258 1.0 4.0 0.00 0.00 0.00 58 1021.3
20260904193101 87 242 3.0 8.0 0.00 0.00 0.00 59 1021.7
20260904191559 87 255 1.0 4.0 0.00 0.00 0.00 60 1021.9
20260904190059 87 278 1.0 5.0 0.00 0.00 0.00 61 1022.1
20260904184554 86 25 2.0 8.0 0.00 0.00 0.00 65 1022.1
20260904183116 85 279 1.0 7.0 0.00 0.00 0.00 64 1022.4
20260904181557 83 24 2.0 4.0 0.00 0.00 0.00 69 1022.5
20260904180100 83 277 0.0 9.0 0.00 0.00 0.00 68 1022.6
20260904174556 85 162 2.0 6.0 0.00 0.00 0.00 63 1022.6
20260904173103 86 294 2.0 5.0 0.00 0.00 0.00 68 1022.7
20260904171613 86 267 1.0 6.0 0.00 0.00 0.00 66 1023.0
20260904170058 84 146 3.0 10.0 0.00 0.00 0.00 66 1023.0
20260904164631 84 126 6.0 13.0 0.00 0.00 0.00 68 1023.2
20260904163102 84 43 2.0 6.0 0.00 0.00 0.00 73 1023.2
20260904161600 82 342 1.0 5.0 0.00 0.00 0.00 74 1023.5
20260904160055 82 188 0.0 5.0 0.00 0.00 0.00 76 1023.5
20260904154554 81 0 2.0 4.0 0.00 0.00 0.00 78 1023.6
20260904153111 80 211 1.0 4.0 0.00 0.00 0.00 78 1023.6
20260904151558 79 0 1.0 4.0 0.00 0.00 0.00 79 1023.7
20260904144603 76 223 0.0 4.0 0.00 0.00 0.00 85 1023.6
20260904143059 75 223 1.0 4.0 0.00 0.00 0.00 86 1023.6
20260904141557 74 0 0.0 3.0 0.00 0.00 0.00 89 1023.6
20260904140056 71 223 1.0 4.0 0.00 0.00 0.00 92 1023.7
20260904134558 70 0 0.0 0.0 0.00 0.00 0.00 97 1023.6
20260904133100 68 0 0.0 0.0 0.00 0.00 0.00 97 1023.5
20260904131602 68 0 0.0 0.0 0.00 0.00 0.00 98 1023.4
20260904130054 66 0 0.0 0.0 0.00 0.00 0.00 98 1023.7
20260904124604 64 0 0.0 0.0 0.00 0.00 0.00 98 1023.4
20260904123106 63 0 0.0 0.0 0.00 0.00 0.00 98 1023.5
20260904121600 63 0 0.0 0.0 0.00 0.00 0.00 97 1023.4
20260904120100 63 0 0.0 0.0 0.00 0.00 0.00 97 1023.4
20260904114603 63 0 0.0 0.0 0.00 0.00 0.00 97 1023.4
20260904113056 63 0 0.0 0.0 0.00 0.00 0.00 97 1023.2
20260904111600 63 0 0.0 0.0 0.00 0.00 0.00 97 1022.9
20260904104559 63 0 0.0 0.0 0.00 0.00 0.00 97 1022.8
20260904103057 64 0 0.0 0.0 0.00 0.00 0.00 97 1022.7
20260904101610 64 0 0.0 0.0 0.00 0.00 0.00 97 1022.6
20260904100107 64 0 0.0 0.0 0.00 0.00 0.00 97 1022.5